sat.trackr.live / text

‹ back to catalog

SHIJIAN-6 05B (SJ-6 05B)

NORAD 49962 · 2021-122B

PAYLOAD ACTIVE UNKNOWN

§ Identity

Operator
Country
PRC
Launch date
2021-12-10
Launch site
JSC
Launch vehicle
Mass (kg)
RCS (m²)

External: N2YO · Heavens-Above · Gunter

§ Orbital elements

Epoch: 2026-05-24T17:58:49.954656Z

Period
95.25 min
Inclination
97.3779°
Eccentricity
0.0003113
Mean motion
15.11774133 rev/d
Perigee alt
528.6 km
Apogee alt
532.9 km
Semi-major
6,908.9 km
B*
9.8855e-5
RAAN
126.1738°
Arg perigee
101.6906°
Mean anomaly
258.4674°
Rev number
24,620

§ Raw data

SHIJIAN-6 05B (SJ-6 05B)1 49962U 21122B   26144.74918929  .00001625  00000+0  98855-4 0  99962 49962  97.3779 126.1738 0003113 101.6906 258.4674 15.11774133246206

JSON: /api/v1/satellites/49962 · /tle

For live sub-satellite position, see the globe view (requires WebGL).

§ Visibility from observer

Set your observer location to see the next 7 days of passes ≥ 10°. The values pass through the URL so the page stays shareable.

No JS? Fill the form by hand. The geolocation button needs JavaScript.